Hourly Data Report for February 09, 2019

TORONTO INTL A
ONTARIO
Current Station Operator: NAVCAN

43°40'36.000" N
79°37'50.000" W
173.40 m
6158731
71624
YYZ

Download Data

Hourly Data (February 2019)
Hourly Data Report for February 9, 2019
TIME
LST
Temp Definition
°C
Dew Point Definition
°C
Rel Hum Definition
%
Precip. Amount Definition
mm

Wind Dir Definition
10's deg

Wind Spd Definition
km/h
Visibility Definition
km
Stn Press Definition
kPa
Hmdx Definition


Wind Chill Definition


Weather Definition


00:00 -9.5 -16.3 58   27 44 24.1 100.97   -21 LegendNANA
01:00 -9.2 -16.4 56   26 42 24.1 101.11   -20 Mostly Cloudy
02:00 -9.8 -16.0 61   26 33 24.1 101.21   -20 LegendNANA
03:00 -10.0 -15.7 63   26 36 24.1 101.29   -20 LegendNANA
04:00 -9.5 -15.0 65   26 29 24.1 101.37   -19 Mainly Clear
05:00 -9.4 -14.8 65   26 27 24.1 101.49   -18 LegendNANA
06:00 -9.1 -14.4 66   26 24 24.1 101.58   -17 LegendNANA
07:00 -8.5 -14.1 65   26 32 24.1 101.66   -18 Mainly Clear
08:00 -8.1 -13.8 64   27 30 24.1 101.75   -17 LegendNANA
09:00 -7.3 -13.2 63   28 23 24.1 101.90   -15 LegendNANA
10:00 -6.5 -12.5 63   29 32 19.3 101.95   -15 Snow
11:00 -5.9 -12.0 62   28 28 16.1 102.01   -14 Snow Showers
12:00 -5.4 -11.7 62   31 19 19.3 102.00   -12 Snow Showers
13:00 -5.5 -11.7 62   31 16 19.3 101.94   -11 Snow Showers
14:00 -4.2 -11.4 58   28 22 24.1 101.91   -11 LegendNANA
15:00 -4.5 -12.1 56   31 15 24.1 101.91   -10 LegendNANA
16:00 -4.6 -12.6 54   30 21 24.1 101.91   -11 Mostly Cloudy
17:00 -5.0 -12.7 55   29 19 24.1 101.88   -11 LegendNANA
18:00 -5.2 -12.1 59   27 17 12.9 101.89   -11 Snow Showers
19:00 -5.8 -11.4 65   27 23 16.1 101.93   -13 Cloudy
20:00 -6.1 -11.9 64   27 26 24.1 101.98   -14 LegendNANA
21:00 -7.0 -12.8 63   27 19 24.1 101.96   -14 LegendNANA
22:00 -7.8 -13.4 65   26 18 24.1 101.98   -15 Mainly Clear
23:00 -8.6 -13.9 66   26 16 24.1 101.93   -15 LegendNANA

Notes on Data Quality.

Legend

  • E = Estimated
  • M = Missing
  • NA = Not Available*
  • [empty] = Indicates an unobserved value
Date modified: